Flag for Canada Weather past 2 weeks in Norman Wells, Northwest Territories, Canada

Now
1 °F

Light snow. Ice fog.


Feels Like: -10 °F
Forecast: -2 / 0 °F
Wind: 6 mph from Northwest

Location: Norman Wells

Current Time: Dec 22, 2014 at 3:15:16 AM

Latest Report: Dec 22, 2014 at 2:00 AM


Visibility: 6 mi

Pressure: 29.88 "Hg

Humidity: 85%

Dew point: -2 °F

Location of Norman WellsLocation

Historic Weather in Norman Wells — Graph

°F

Norman Wells temperature yesterday

Maximum temperature yesterday: 1 °F (at 3:00 AM)
Minimum temperature yesterday: 0 °F (at 12:00 AM)
Average temperature yesterday: 1 °F

Past Weeks' High & Low Weather Summary

 TemperatureHumidityPressure
High12 °F (Dec 15, 4:00 AM)85% (Dec 14, 3:00 PM)30.34 "Hg (Dec 14, 3:00 PM)
Low-22 °F (Dec 7, 11:00 AM)68% (Dec 7, 12:00 PM)29.53 "Hg (Dec 15, 7:00 AM)
Average-5 °F79%29.84 "Hg
* Reported Dec 7 2:00 AM — Dec 22 2:00 AM, Norman Wells, Weather by CustomWeather, © 2014

Note: Actual official high and low records may vary slightly from our data, if they occured in-between our weather recording intervals... More about our weather records

Advertising

Norman Wells weather history for previous 24 hours

 ConditionsComfort  
Time TempWeatherWind HumidityBarometerVisibility
2:00 AM
Dec 22
1 °FLight snow. Ice fog.6 mph85%29.88 "Hg6 mi
1:00 AM1 °FLight snow. Ice fog.5 mph85%29.86 "Hg5 mi
12:00 AM1 °FLight snow. Ice fog.5 mph85%29.85 "Hg5 mi
11:00 PM
Dec 21
1 °FLight snow. Overcast.5 mph85%29.84 "Hg5 mi
10:00 PM1 °FLight snow. Overcast.3 mph85%29.83 "Hg4 mi
9:00 PM1 °FLight snow. Overcast.7 mph85%29.82 "Hg4 mi
8:00 PM1 °FLight snow. Overcast.6 mph85%29.81 "Hg4 mi
7:00 PM1 °FLight snow. Overcast.6 mph85%29.80 "Hg4 mi
6:00 PM1 °FLight snow. Overcast.7 mph85%29.79 "Hg4 mi
5:00 PM1 °FLight snow. Overcast.7 mph85%29.78 "Hg4 mi
4:00 PM1 °FLight snow. Overcast.6 mph85%29.77 "Hg4 mi
3:00 PM1 °FLight snow. Overcast.5 mph85%29.76 "Hg6 mi
2:00 PM1 °FLight snow. Overcast.6 mph85%29.75 "Hg10 mi
1:00 PM1 °FLight snow. Mostly cloudy.2 mph85%29.74 "Hg10 mi
12:00 PM1 °FLight snow. Mostly cloudy.2 mph85%29.74 "Hg10 mi
11:00 AM1 °FLight snow. Mostly cloudy.2 mph85%29.73 "Hg10 mi
10:00 AM1 °FLight snow. Overcast.2 mph85%29.72 "Hg8 mi
9:00 AM1 °FLight snow. Overcast.2 mph85%29.70 "Hg8 mi
8:00 AM1 °FLight snow. Overcast.No wind85%29.69 "Hg6 mi
7:00 AM1 °FLight snow. Overcast.No wind85%29.69 "Hg6 mi
6:00 AM1 °FLight snow. Overcast.No wind85%29.68 "Hg15 mi
5:00 AM1 °FLight snow. Overcast.No wind85%29.68 "Hg15 mi
4:00 AM1 °FLight snow. Mostly cloudy.2 mph85%29.68 "Hg15 mi
3:00 AM1 °FLight snow. Mostly cloudy.No wind85%29.67 "Hg15 mi
Weather by CustomWeather, © 2014

See weather overviewHow to use our weather pages